TimePST,TemperatureF,Dew PointF,Humidity,Sea Level PressureIn,VisibilityMPH,Wind Direction,Wind SpeedMPH,Gust SpeedMPH,PrecipitationIn,Events,Conditions,WindDirDegrees,DateUTC
12:53 AM,45.0,39.9,82,30.55,10.0,Calm,Calm,-,N/A,,Overcast,0,2013-12-24 08:53:00
1:53 AM,45.0,39.9,82,30.56,10.0,Calm,Calm,-,N/A,,Overcast,0,2013-12-24 09:53:00
2:45 AM,44.6,39.2,81,30.56,10.0,SSE,3.5,-,N/A,,Overcast,160,2013-12-24 10:45:00
2:53 AM,44.1,39.0,82,30.58,10.0,SSE,4.6,-,N/A,,Mostly Cloudy,150,2013-12-24 10:53:00
3:53 AM,41.0,37.9,89,30.58,10.0,Calm,Calm,-,N/A,,Clear,0,2013-12-24 11:53:00
4:53 AM,39.0,37.0,93,30.61,10.0,Calm,Calm,-,N/A,,Scattered Clouds,0,2013-12-24 12:53:00
5:53 AM,39.0,37.9,96,30.62,10.0,Calm,Calm,-,N/A,,Mostly Cloudy,0,2013-12-24 13:53:00
6:53 AM,37.0,37.0,100,30.62,10.0,Calm,Calm,-,N/A,,Clear,0,2013-12-24 14:53:00
7:53 AM,37.0,36.0,96,30.63,9.0,Calm,Calm,-,N/A,,Clear,0,2013-12-24 15:53:00
8:53 AM,37.0,37.0,100,30.64,10.0,Calm,Calm,-,N/A,,Mostly Cloudy,0,2013-12-24 16:53:00
9:11 AM,37.4,37.4,100,30.62,10.0,Calm,Calm,-,N/A,,Overcast,0,2013-12-24 17:11:00
9:53 AM,39.9,37.0,89,30.64,10.0,Calm,Calm,-,N/A,,Overcast,0,2013-12-24 17:53:00
10:53 AM,42.1,39.0,89,30.63,10.0,Calm,Calm,-,N/A,,Overcast,0,2013-12-24 18:53:00
11:53 AM,44.1,39.9,85,30.62,10.0,NW,3.5,-,N/A,,Overcast,310,2013-12-24 19:53:00
12:53 PM,46.0,39.9,79,30.61,10.0,NNW,3.5,-,N/A,,Overcast,340,2013-12-24 20:53:00
1:53 PM,46.0,39.0,76,30.59,10.0,NNW,4.6,-,N/A,,Partly Cloudy,330,2013-12-24 21:53:00
2:53 PM,46.0,39.0,76,30.60,10.0,NNW,4.6,-,N/A,,Overcast,340,2013-12-24 22:53:00
3:53 PM,44.1,39.0,82,30.59,10.0,WNW,4.6,-,N/A,,Partly Cloudy,300,2013-12-24 23:53:00
4:53 PM,42.1,37.9,85,30.59,10.0,Calm,Calm,-,N/A,,Clear,0,2013-12-25 00:53:00
5:53 PM,41.0,37.9,89,30.58,10.0,Calm,Calm,-,N/A,,Scattered Clouds,0,2013-12-25 01:53:00
6:53 PM,39.0,37.9,96,30.57,8.0,Calm,Calm,-,N/A,,Scattered Clouds,0,2013-12-25 02:53:00
7:53 PM,37.9,37.0,97,30.58,7.0,Calm,Calm,-,N/A,,Scattered Clouds,0,2013-12-25 03:53:00
8:00 PM,37.4,37.4,100,30.56,7.0,Calm,Calm,-,N/A,,Mostly Cloudy,0,2013-12-25 04:00:00
8:22 PM,37.4,35.6,93,30.56,8.0,Calm,Calm,-,N/A,,Overcast,0,2013-12-25 04:22:00
8:53 PM,37.0,36.0,96,30.57,7.0,Calm,Calm,-,N/A,,Overcast,0,2013-12-25 04:53:00
9:53 PM,35.1,34.0,96,30.56,8.0,Calm,Calm,-,N/A,,Clear,0,2013-12-25 05:53:00
10:42 PM,33.8,33.8,100,30.55,6.0,Calm,Calm,-,N/A,,Scattered Clouds,0,2013-12-25 06:42:00
10:53 PM,33.1,33.1,100,30.57,7.0,Calm,Calm,-,N/A,,Scattered Clouds,0,2013-12-25 06:53:00
11:53 PM,32.0,32.0,100,30.56,8.0,Calm,Calm,-,N/A,,Scattered Clouds,0,2013-12-25 07:53:00